Regional Weather Roundup
Issued by NWS

Home | Current Version | Previous Version | Text Only | Print | Product List | Glossary On
Versions: 1 2 3 4 5 6 7 8 9 10 11 12 13 14 15 16 17 18 19 20 21 22 23 24 25 26 27 28 29 30 31 32 33 34 35 36 37 38 39 40 41 42 43 44 45 46 47 48 49 50
142
ASUS44 KJAN 301010
RWRMS

MISSISSIPPI HOURLY WEATHER ROUNDUP
NATIONAL WEATHER SERVICE JACKSON MS
500 AM CDT MON MAR 30 2015

NOTE: "FAIR: INDICATES FEW OR NO CLOUDS BELOW 12,000 FEET WITH NO
SIGNIFICANT WEATHER AND/OR OBSTRUCTIONS TO VISIBILITY.

MSZ001>002-007>008-010>013-018>021-025>028-034>036-301100-
NORTHWEST MISSISSIPPI

CITY           SKY/WX    TMP DP  RH WIND       PRES   REMARKS
CLARKSDALE     MOCLDY    57  57 100 NW6       30.14R
CLEVELAND      CLOUDY    63  58  84 NW9       30.12R
GREENWOOD      CLOUDY    65  57  75 SW9       30.11R
GREENVILLE     CLOUDY    66  59  78 W9        30.12R
OLIVE BRANCH     N/A     52 N/A N/A N5        30.13R VSB 3/4
OXFORD         FAIR      55  55 100 CALM      30.12S
TUNICA         MOSUNNY   54  52  94 N7        30.14
$$

MSZ003>006-009-014>017-022>024-029>033-037>039-301100-
NORTHEAST MISSISSIPPI

CITY           SKY/WX    TMP DP  RH WIND       PRES   REMARKS
COLUMBUS AFB   MOCLDY    63  61  94 W10       30.08R
CORINTH        FAIR      55  54  94 NW6       30.09R
GOLDN TRIANGLE MOCLDY    63  57  82 W7        30.09R
STARKVILLE     TSTM      61  59  94 W6        30.10R
TUPELO         CLOUDY    58  56  93 CALM      30.09R
$$

MSZ040-058-301100-
CENTRAL MISSISSIPPI

CITY           SKY/WX    TMP DP  RH WIND       PRES   REMARKS
JACKSON INTL   PTCLDY    63  59  87 SW9       30.14R
JACKSON HAWKNS PTCLDY    64  60  87 SW14      30.13S
MERIDIAN KEY   CLEAR     62  58  86 SW9       30.13R
MERIDIAN NAS   NOT AVBL
RAYMOND        FAIR      64  59  82 SW10      30.12F
VICKSBURG      PTCLDY    65  59  81 SW8G17    30.14S
$$

MSZ059>079-301100-
SOUTH MISSISSIPPI

CITY           SKY/WX    TMP DP  RH WIND       PRES   REMARKS
BROOKHAVEN       N/A     57  57 100 CALM      30.19S
HATTIESBURG    FOG       56  56 100 S3        30.19F VSB 1/4
MCCOMB         PTCLDY    56  55  97 CALM      30.18S
NATCHEZ        PTCLDY    63  57  82 CALM      30.19R
PINE BELT      CLOUDY    59  55  88 S3        30.19S VSB 1/2
$$

MSZ080>082-301100-
COASTAL MISSISSIPPI

CITY           SKY/WX    TMP DP  RH WIND       PRES   REMARKS
BILOXI         MOCLDY    64  64 100 SW5       30.18S
PASCAGOULA     MOCLDY    65  62  90 CALM      30.19S
GULFPORT       MOCLDY    63  61  93 CALM      30.18F
$$



USA.gov is the U.S. government's official web portal to all federal, state and local government web resources and services.